Regional Weather Roundup
Issued by NWS

Home | Current Version | Previous Version | Graphics & Text | Print | Product List | Glossary On
Versions: 1 2 3 4 5 6 7 8 9 10 11 12 13 14 15 16 17 18 19 20 21 22 23 24 25 26 27
000
ASUS45 KBOU 250410
RWRCO

WEATHER ROUNDUP FOR COLORADO
NATIONAL WEATHER SERVICE DENVER/BOULDER CO
1000 PM MDT SAT SEP 24 2016

NOTE: "FAIR" INDICATES FEW OR NO CLOUDS BELOW 12000 FEET WITH NO
SIGNIFICANT WEATHER AND/OR OBSTRUCTIONS TO VISIBILITY.

COZ001>005-013-030-031-250500-
...NORTHWEST COLORADO...

CITY           SKY/WX    TMP DP  RH WIND       PRES   REMARKS
CRAIG          CLOUDY    45  41  86 CALM      30.38R
HAYDEN         CLOUDY    43  37  81 W3        30.38R
MEEKER         CLOUDY    45  42  89 CALM      30.38R
MOUNT WERNER   NOT AVBL
STEAMBOAT SPGS CLOUDY    40  38  93 CALM      30.38R
WALDEN           N/A     36  32  87 N9        30.40R
$$

COZ006>008-011-250500-
...WEST CENTRAL VALLEYS...

CITY           SKY/WX    TMP DP  RH WIND       PRES   REMARKS
GRAND JUNCTION CLOUDY    54  43  66 E3        30.31R
MONTROSE       CLOUDY    52  39  61 NW7       30.35R
EAGLE          CLOUDY    46  37  71 SE3       30.39R
RIFLE          CLOUDY    50  46  86 SE8       30.35S
DELTA          CLOUDY    54  43  67 NE3       30.33R
NUCLA          CLOUDY    54  36  50 E6        30.35R
$$

COZ017>023-064>068-250500-
...SOUTHWEST COLORADO...

CITY           SKY/WX    TMP DP  RH WIND       PRES   REMARKS
DURANGO        FAIR      45  32  60 NW5       30.26R
CORTEZ         CLOUDY    53  38  56 N5        30.28R
PAGOSA SPRINGS FAIR      42  32  68 CALM      30.31R
TELLURIDE      MOCLDY    41  32  71 CALM      30.41R
WOLF CREEK PAS FAIR      27  25  93 MISG      30.49R
$$

COZ009-010-012-014-032>034-037-058>063-250500-
...CENTRAL COLORADO...

CITY           SKY/WX    TMP DP  RH WIND       PRES   REMARKS
ASPEN          CLOUDY    43  37  79 CALM      30.40R
BUENA VISTA    CLOUDY    45  28  52 NW9       30.36R
COPPER MTN     HAZE      32  28  86 MISG      30.49R VSB 1/4
BERTHOUD PASS  CLOUDY    23  10  58 N25G35    30.47R WCI   7
COTTONWOOD PAS CLOUDY    41  28  60 CALM      30.42R
GUNNISON       CLOUDY    39  34  81 CALM      30.39R
KREMMLING      CLOUDY    43  32  65 CALM      30.40R
LEADVILLE      CLOUDY    35  26  69 NW8       30.42R WCI  29
SALIDA         FAIR      44  30  57 NW3       30.42R
SUNLIGHT       FOG       32  32 100 MISG      30.51R VSB<1/4
WILKERSON PASS FAIR      32  23  69 NW14G24   30.47R WCI  22
$$

COZ069>075-250500-
...SAN LUIS VALLEY/SANGRE DE CRISTO MOUNTAINS...

CITY           SKY/WX    TMP DP  RH WIND       PRES   REMARKS
ALAMOSA        FAIR      45  29  53 N15       30.31R
LA VETA PASS   FAIR      39  27  60 MISG      30.40R
SAGUACHE       NOT AVBL
$$

COZ035-036-038>040-250500-
...NORTHERN COLORADO FRONT RANGE...

CITY           SKY/WX    TMP DP  RH WIND       PRES   REMARKS
DENVER INTL AP FAIR      50  32  50 NE6       30.25R
DMNS CITY PARK   N/A     53  32  46 NE5G12    30.25R
AURORA         PTCLDY    49  31  49 NE6       30.26R
FRONT RANGE AP NOT AVBL
ERIE MUNI ARPT FAIR      52  31  43 NE5       30.24R
BOULDER MUN AP CLOUDY    57  32  38 NW6       30.24R
CENTENNIAL     FAIR      53  30  41 N6        30.25R
BROOMFIELD     MOCLDY    55  28  35 W14       30.25R
FORT COLLINS   CLOUDY    54  36  50 N20       30.26R
LONGMONT       FAIR      57  33  39 N5        30.25R
$$

COZ041-046-047-076>085-087-088-250500-
...PIKES PEAK/PALMER DIVIDE AND SOUTHERN FOOTHILLS...

CITY           SKY/WX    TMP DP  RH WIND       PRES   REMARKS
COLO. SPRINGS  FAIR      54  24  31 N13       30.26R
A. F. ACADEMY  FAIR      46  24  43 N10       30.27R
SCHRIEVER AFB  NOT AVBL
ELLICOTT       FAIR     N/A N/A N/A N14       30.23R
FALCON         FAIR      50  25  38 N10       30.28R
FORT CARSON    FAIR      54  24  31 N13       30.21R
LIMON          CLOUDY    53  35  50 N22G31    30.24R
MONUMENT HILL  FAIR      43  28  56 N5        30.31R
TRINIDAD       FAIR      56  25  30 NW9       30.20R
$$

COZ042>045-048>051-090-091-250500-
...NORTHEAST COLORADO...

CITY           SKY/WX    TMP DP  RH WIND       PRES   REMARKS
GREELEY ARPT   CLOUDY    55  36  47 N18       30.24R
AKRON          FAIR      50  37  61 N12       30.23R
BURLINGTON     CLOUDY    57  44  62 NW6       30.14R
WRAY           NOT AVBL
STERLING       CLOUDY    52  41  66 NE3       30.21R
HOLYOKE        FAIR      59  43  55 NW12      30.19R
FORT MORGAN    FAIR      53  34  48 N14       30.23R
$$

COZ086-089-092>099-250500-
...SOUTHEAST COLORADO...

CITY           SKY/WX    TMP DP  RH WIND       PRES   REMARKS
PUEBLO         FAIR      62  25  24 NW13      30.19R
LA JUNTA       FAIR      62  28  27 N9        30.14R
LAMAR          FAIR      52  37  56 SW5       30.07R
SPRINGFIELD    NOT AVBL
$$




USA.gov is the U.S. government's official web portal to all federal, state and local government web resources and services.